小惑星フォルス

(5145) Pholus (1991)

English version
Home page
Updated on August 1, 2010

---------------------------------------------------------------------

・ プロフィール

符号 1992 AD
発見日 1992年1月9日
発見光度 17.0等
発見者 D. L. Rabinowitz (Spacewatch team)

・ 写真集

・ 軌道要素

The following orbital elements are taken from MPO169571

Epoch 2010 Jan. 4.0 TT = JDT 2455200.5                  MPC
M  72.00084              (2000.0)            P               Q
n   0.01076164     Peri.  354.75936     -0.41695483     -0.83311169
a  20.3181358      Node   119.42655     +0.84835078     -0.50022835
e   0.5715318      Incl.   24.66111     +0.32626617     +0.23600107
P  91.6            H    7.1           G   0.15           U   0
From 319 observations at 21 oppositions, 1977-2009, mean residual 0".58.

・ 星図

・ 1991年12月30日〜1999年11月18日

・ 光度変化

        H = 6.5  G = 0.15

---------------------------------------------------------------------

軌道要素はMPCのEphemerides and Orbital Elementsに掲載されたものです。
星図は StellaNavigator Ver.2.0 for Windows (アストロアーツ 編著 / アスキー出版局刊) で作成したものです。
光度グラフはComet for Windowsで作成したものです。

---------------------------------------------------------------------

Copyright(C) Seiichi Yoshida (comet@aerith.net). All rights reserved.